Year,Month,Day,Hour,Minute,Value (Times are PST for temperature in C)
2013,06,30,00,00,18.90
2013,06,30,00,01,18.90
2013,06,30,00,02,18.90
2013,06,30,00,03,18.90
2013,06,30,00,04,19.00
2013,06,30,00,05,19.00
2013,06,30,00,06,19.00
2013,06,30,00,07,19.00
2013,06,30,00,08,19.00
2013,06,30,00,09,19.00
2013,06,30,00,10,19.00
2013,06,30,00,11,19.10
2013,06,30,00,12,19.10
2013,06,30,00,13,19.10
2013,06,30,00,14,19.10
2013,06,30,00,15,19.10
2013,06,30,00,16,19.10
2013,06,30,00,17,19.10
2013,06,30,00,18,19.10
2013,06,30,00,19,19.10
2013,06,30,00,20,19.10
2013,06,30,00,21,19.10
2013,06,30,00,22,19.10
2013,06,30,00,23,19.10
2013,06,30,00,24,19.10
2013,06,30,00,25,19.10
2013,06,30,00,26,19.10
2013,06,30,00,27,19.10
2013,06,30,00,28,19.10
2013,06,30,00,29,19.10
2013,06,30,00,30,19.10
2013,06,30,00,31,19.10
2013,06,30,00,32,19.10
2013,06,30,00,33,19.10
2013,06,30,00,34,19.10
2013,06,30,00,35,19.10
2013,06,30,00,36,19.10
2013,06,30,00,37,19.10
2013,06,30,00,38,19.10
2013,06,30,00,39,19.10
2013,06,30,00,40,19.10
2013,06,30,00,41,19.10
2013,06,30,00,42,19.10
2013,06,30,00,43,19.10
2013,06,30,00,44,19.10
2013,06,30,00,45,19.10
2013,06,30,00,46,19.10
2013,06,30,00,47,19.00
2013,06,30,00,48,19.00
2013,06,30,00,49,19.00
2013,06,30,00,50,19.00
2013,06,30,00,51,19.00
2013,06,30,00,52,19.00
2013,06,30,00,53,19.00
2013,06,30,00,54,19.00
2013,06,30,00,55,19.00
2013,06,30,00,56,19.00
2013,06,30,00,57,19.00
2013,06,30,00,58,18.90
2013,06,30,00,59,18.90
2013,06,30,01,00,18.90
2013,06,30,01,01,18.90
2013,06,30,01,02,18.90
2013,06,30,01,03,18.90
2013,06,30,01,04,18.90
2013,06,30,01,05,18.90
2013,06,30,01,06,18.90
2013,06,30,01,07,18.90
2013,06,30,01,08,18.90
2013,06,30,01,09,18.90
2013,06,30,01,10,18.90
2013,06,30,01,11,18.90
2013,06,30,01,12,18.90
2013,06,30,01,13,18.90
2013,06,30,01,14,18.90
2013,06,30,01,15,18.90
2013,06,30,01,16,18.90
2013,06,30,01,17,18.90
2013,06,30,01,18,18.90
2013,06,30,01,19,18.90
2013,06,30,01,20,18.80
2013,06,30,01,21,18.80
2013,06,30,01,22,18.80
2013,06,30,01,23,18.80
2013,06,30,01,24,18.80
2013,06,30,01,25,18.80
2013,06,30,01,26,18.80
2013,06,30,01,27,18.80
2013,06,30,01,28,18.80
2013,06,30,01,29,18.80
2013,06,30,01,30,18.70
2013,06,30,01,31,18.70
2013,06,30,01,32,18.70
2013,06,30,01,33,18.70
2013,06,30,01,34,18.70
2013,06,30,01,35,18.70
2013,06,30,01,36,18.70
2013,06,30,01,37,18.70
2013,06,30,01,38,18.60
2013,06,30,01,39,18.60
2013,06,30,01,40,18.60
2013,06,30,01,41,18.50
2013,06,30,01,42,18.50
2013,06,30,01,43,18.40
2013,06,30,01,44,18.40
2013,06,30,01,45,18.40
2013,06,30,01,46,18.40
2013,06,30,01,47,18.30
2013,06,30,01,48,18.30
2013,06,30,01,49,18.30
2013,06,30,01,50,18.20
2013,06,30,01,51,18.20
2013,06,30,01,52,18.20
2013,06,30,01,53,18.10
2013,06,30,01,54,18.10
2013,06,30,01,55,18.10
2013,06,30,01,56,18.00
2013,06,30,01,57,18.00
2013,06,30,01,58,17.90
2013,06,30,01,59,17.80
2013,06,30,02,00,17.80
2013,06,30,02,01,17.70
2013,06,30,02,02,17.60
2013,06,30,02,03,17.60
2013,06,30,02,04,17.50
2013,06,30,02,05,17.40
2013,06,30,02,06,17.40
2013,06,30,02,07,17.30
2013,06,30,02,08,17.30
2013,06,30,02,09,17.20
2013,06,30,02,10,17.20
2013,06,30,02,11,17.10
2013,06,30,02,12,17.00
2013,06,30,02,13,17.00
2013,06,30,02,14,16.90
2013,06,30,02,15,16.80
2013,06,30,02,16,16.70
2013,06,30,02,17,16.60
2013,06,30,02,18,16.60
2013,06,30,02,19,16.50
2013,06,30,02,20,16.40
2013,06,30,02,21,16.30
2013,06,30,02,22,16.30
2013,06,30,02,23,16.20
2013,06,30,02,24,16.20
2013,06,30,02,25,16.10
2013,06,30,02,26,16.10
2013,06,30,02,27,16.10
2013,06,30,02,28,16.10
2013,06,30,02,29,16.00
2013,06,30,02,30,16.00
2013,06,30,02,31,16.00
2013,06,30,02,32,16.00
2013,06,30,02,33,16.00
2013,06,30,02,34,16.00
2013,06,30,02,35,16.00
2013,06,30,02,36,16.00
2013,06,30,02,37,16.10
2013,06,30,02,38,16.10
2013,06,30,02,39,16.10
2013,06,30,02,40,16.10
2013,06,30,02,41,16.10
2013,06,30,02,42,16.20
2013,06,30,02,43,16.20
2013,06,30,02,44,16.10
2013,06,30,02,45,16.10
2013,06,30,02,46,16.10
2013,06,30,02,47,16.00
2013,06,30,02,48,16.00
2013,06,30,02,49,15.90
2013,06,30,02,50,15.90
2013,06,30,02,51,15.80
2013,06,30,02,52,15.80
2013,06,30,02,53,15.70
2013,06,30,02,54,15.70
2013,06,30,02,55,15.60
2013,06,30,02,56,15.60
2013,06,30,02,57,15.50
2013,06,30,02,58,15.50
2013,06,30,02,59,15.40
2013,06,30,03,00,15.40
2013,06,30,03,01,15.40
2013,06,30,03,02,15.30
2013,06,30,03,03,15.30
2013,06,30,03,04,15.30
2013,06,30,03,05,15.30
2013,06,30,03,06,15.20
2013,06,30,03,07,15.20
2013,06,30,03,08,15.20
2013,06,30,03,09,15.20
2013,06,30,03,10,15.20
2013,06,30,03,11,15.20
2013,06,30,03,12,15.20
2013,06,30,03,13,15.20
2013,06,30,03,14,15.20
2013,06,30,03,15,15.30
2013,06,30,03,16,15.30
2013,06,30,03,17,15.30
2013,06,30,03,18,15.30
2013,06,30,03,19,15.30
2013,06,30,03,20,15.30
2013,06,30,03,21,15.30
2013,06,30,03,22,15.30
2013,06,30,03,23,15.30
2013,06,30,03,24,15.30
2013,06,30,03,25,15.30
2013,06,30,03,26,15.30
2013,06,30,03,27,15.30
2013,06,30,03,28,15.30
2013,06,30,03,29,15.30
2013,06,30,03,30,15.40
2013,06,30,03,31,15.40
2013,06,30,03,32,15.40
2013,06,30,03,33,15.40
2013,06,30,03,34,15.40
2013,06,30,03,35,15.40
2013,06,30,03,36,15.40
2013,06,30,03,37,15.40
2013,06,30,03,38,15.40
2013,06,30,03,39,15.40
2013,06,30,03,40,15.40
2013,06,30,03,41,15.40
2013,06,30,03,42,15.40
2013,06,30,03,43,15.40
2013,06,30,03,44,15.40
2013,06,30,03,45,15.40
2013,06,30,03,46,15.40
2013,06,30,03,47,15.40
2013,06,30,03,48,15.40
2013,06,30,03,49,15.50
2013,06,30,03,50,15.50
2013,06,30,03,51,15.50
2013,06,30,03,52,15.50
2013,06,30,03,53,15.50
2013,06,30,03,54,15.50
2013,06,30,03,55,15.50
2013,06,30,03,56,15.60
2013,06,30,03,57,15.60
2013,06,30,03,58,15.60
2013,06,30,03,59,15.60
2013,06,30,04,00,15.60
2013,06,30,04,01,15.60
2013,06,30,04,02,15.60
2013,06,30,04,03,15.60
2013,06,30,04,04,15.60
2013,06,30,04,05,15.70
2013,06,30,04,06,15.70
2013,06,30,04,07,15.70
2013,06,30,04,08,15.70
2013,06,30,04,09,15.70
2013,06,30,04,10,15.70
2013,06,30,04,11,15.70
2013,06,30,04,12,15.70
2013,06,30,04,13,15.70
2013,06,30,04,14,15.70
2013,06,30,04,15,15.70
2013,06,30,04,16,15.70
2013,06,30,04,17,15.70
2013,06,30,04,18,15.70
2013,06,30,04,19,15.70
2013,06,30,04,20,15.70
2013,06,30,04,21,15.80
2013,06,30,04,22,15.80
2013,06,30,04,23,15.80
2013,06,30,04,24,15.80
2013,06,30,04,25,15.80
2013,06,30,04,26,15.80
2013,06,30,04,27,15.80
2013,06,30,04,28,15.80
2013,06,30,04,29,15.80
2013,06,30,04,30,15.90
2013,06,30,04,31,15.90
2013,06,30,04,32,15.90
2013,06,30,04,33,15.90
2013,06,30,04,34,15.90
2013,06,30,04,35,15.90
2013,06,30,04,36,15.90
2013,06,30,04,37,15.90
2013,06,30,04,38,15.90
2013,06,30,04,39,15.90
2013,06,30,04,40,15.90
2013,06,30,04,41,15.90
2013,06,30,04,42,15.90
2013,06,30,04,43,15.90
2013,06,30,04,44,15.90
2013,06,30,04,45,15.90
2013,06,30,04,46,15.90
2013,06,30,04,47,15.90
2013,06,30,04,48,15.90
2013,06,30,04,49,15.90
2013,06,30,04,50,15.90
2013,06,30,04,51,15.90
2013,06,30,04,52,15.90
2013,06,30,04,53,15.90
2013,06,30,04,54,15.90
2013,06,30,04,55,15.90
2013,06,30,04,56,15.90
2013,06,30,04,57,15.90
2013,06,30,04,58,16.00
2013,06,30,04,59,16.00
2013,06,30,05,00,16.00
2013,06,30,05,01,16.00
2013,06,30,05,02,16.00
2013,06,30,05,03,16.00
2013,06,30,05,04,16.10
2013,06,30,05,05,16.10
2013,06,30,05,06,16.10
2013,06,30,05,07,16.10
2013,06,30,05,08,16.10
2013,06,30,05,09,16.10
2013,06,30,05,10,16.10
2013,06,30,05,11,16.00
2013,06,30,05,12,16.00
2013,06,30,05,13,15.90
2013,06,30,05,14,15.90
2013,06,30,05,15,15.80
2013,06,30,05,16,15.80
2013,06,30,05,17,15.80
2013,06,30,05,18,15.70
2013,06,30,05,19,15.60
2013,06,30,05,20,15.60
2013,06,30,05,21,15.60
2013,06,30,05,22,15.50
2013,06,30,05,23,15.40
2013,06,30,05,24,15.40
2013,06,30,05,25,15.30
2013,06,30,05,26,15.30
2013,06,30,05,27,15.20
2013,06,30,05,28,15.20
2013,06,30,05,29,15.20
2013,06,30,05,30,15.20
2013,06,30,05,31,15.10
2013,06,30,05,32,15.10
2013,06,30,05,33,15.10
2013,06,30,05,34,15.10
2013,06,30,05,35,15.10
2013,06,30,05,36,15.00
2013,06,30,05,37,15.10
2013,06,30,05,38,15.00
2013,06,30,05,39,15.00
2013,06,30,05,40,15.00
2013,06,30,05,41,15.00
2013,06,30,05,42,15.00
2013,06,30,05,43,15.00
2013,06,30,05,44,15.00
2013,06,30,05,45,15.00
2013,06,30,05,46,15.00
2013,06,30,05,47,15.00
2013,06,30,05,48,15.00
2013,06,30,05,49,15.00
2013,06,30,05,50,15.00
2013,06,30,05,51,15.00
2013,06,30,05,52,15.10
2013,06,30,05,53,15.10
2013,06,30,05,54,15.20
2013,06,30,05,55,15.20
2013,06,30,05,56,15.20
2013,06,30,05,57,15.30
2013,06,30,05,58,15.30
2013,06,30,05,59,15.30
2013,06,30,06,00,15.30
2013,06,30,06,01,15.40
2013,06,30,06,02,15.40
2013,06,30,06,03,15.40
2013,06,30,06,04,15.50
2013,06,30,06,05,15.50
2013,06,30,06,06,15.60
2013,06,30,06,07,15.60
2013,06,30,06,08,15.60
2013,06,30,06,09,15.60
2013,06,30,06,10,15.60
2013,06,30,06,11,15.70
2013,06,30,06,12,15.70
2013,06,30,06,13,15.70
2013,06,30,06,14,15.70
2013,06,30,06,15,15.70
2013,06,30,06,16,15.80
2013,06,30,06,17,15.80
2013,06,30,06,18,15.80
2013,06,30,06,19,15.80
2013,06,30,06,20,15.80
2013,06,30,06,21,15.80
2013,06,30,06,22,15.80
2013,06,30,06,23,15.80
2013,06,30,06,24,15.80
2013,06,30,06,25,15.80
2013,06,30,06,26,15.80
2013,06,30,06,27,15.80
2013,06,30,06,28,15.80
2013,06,30,06,29,15.80
2013,06,30,06,30,15.80
2013,06,30,06,31,15.80
2013,06,30,06,32,15.80
2013,06,30,06,33,15.80
2013,06,30,06,34,15.80
2013,06,30,06,35,15.80
2013,06,30,06,36,15.80
2013,06,30,06,37,15.80
2013,06,30,06,38,15.80
2013,06,30,06,39,15.80
2013,06,30,06,40,15.80
2013,06,30,06,41,15.90
2013,06,30,06,42,15.90
2013,06,30,06,43,15.90
2013,06,30,06,44,15.90
2013,06,30,06,45,15.90
2013,06,30,06,46,15.90
2013,06,30,06,47,15.90
2013,06,30,06,48,15.90
2013,06,30,06,49,15.90
2013,06,30,06,50,15.90
2013,06,30,06,51,15.90
2013,06,30,06,52,15.90
2013,06,30,06,53,15.90
2013,06,30,06,54,16.00
2013,06,30,06,55,16.00
2013,06,30,06,56,16.00
2013,06,30,06,57,16.10
2013,06,30,06,58,16.10
2013,06,30,06,59,16.10
2013,06,30,07,00,16.10
2013,06,30,07,01,16.10
2013,06,30,07,02,16.20
2013,06,30,07,03,16.20
2013,06,30,07,04,16.20
2013,06,30,07,05,16.20
2013,06,30,07,06,16.30
2013,06,30,07,07,16.30
2013,06,30,07,08,16.30
2013,06,30,07,09,16.30
2013,06,30,07,10,16.40
2013,06,30,07,11,16.40
2013,06,30,07,12,16.50
2013,06,30,07,13,16.50
2013,06,30,07,14,16.60
2013,06,30,07,15,16.60
2013,06,30,07,16,16.70
2013,06,30,07,17,16.70
2013,06,30,07,18,16.80
2013,06,30,07,19,16.90
2013,06,30,07,20,16.90
2013,06,30,07,21,16.90
2013,06,30,07,22,17.00
2013,06,30,07,23,17.00
2013,06,30,07,24,17.10
2013,06,30,07,25,17.10
2013,06,30,07,26,17.10
2013,06,30,07,27,17.10
2013,06,30,07,28,17.10
2013,06,30,07,29,17.10
2013,06,30,07,30,17.10
2013,06,30,07,31,17.20
2013,06,30,07,32,17.20
2013,06,30,07,33,17.30
2013,06,30,07,34,17.30
2013,06,30,07,35,17.40
2013,06,30,07,36,17.40
2013,06,30,07,37,17.50
2013,06,30,07,38,17.50
2013,06,30,07,39,17.60
2013,06,30,07,40,17.60
2013,06,30,07,41,17.60
2013,06,30,07,42,17.70
2013,06,30,07,43,17.70
2013,06,30,07,44,17.70
2013,06,30,07,45,17.70
2013,06,30,07,46,17.80
2013,06,30,07,47,17.80
2013,06,30,07,48,17.80
2013,06,30,07,49,17.90
2013,06,30,07,50,17.90
2013,06,30,07,51,17.90
2013,06,30,07,52,17.90
2013,06,30,07,53,18.00
2013,06,30,07,54,18.00
2013,06,30,07,55,18.00
2013,06,30,07,56,18.10
2013,06,30,07,57,18.10
2013,06,30,07,58,18.20
2013,06,30,07,59,18.20
2013,06,30,08,00,18.30
2013,06,30,08,01,18.40
2013,06,30,08,02,18.50
2013,06,30,08,03,18.60
2013,06,30,08,04,18.70
2013,06,30,08,05,18.80
2013,06,30,08,06,18.90
2013,06,30,08,07,19.00
2013,06,30,08,08,19.10
2013,06,30,08,09,19.20
2013,06,30,08,10,19.30
2013,06,30,08,11,19.50
2013,06,30,08,12,19.60
2013,06,30,08,13,19.70
2013,06,30,08,14,19.80
2013,06,30,08,15,19.80
2013,06,30,08,16,19.90
2013,06,30,08,17,20.00
2013,06,30,08,18,20.00
2013,06,30,08,19,20.10
2013,06,30,08,20,20.20
2013,06,30,08,21,20.30
2013,06,30,08,22,20.30
2013,06,30,08,23,20.30
2013,06,30,08,24,20.40
2013,06,30,08,25,20.50
2013,06,30,08,26,20.60
2013,06,30,08,27,20.70
2013,06,30,08,28,20.80
2013,06,30,08,29,20.90
2013,06,30,08,30,21.00
2013,06,30,08,31,21.10
2013,06,30,08,32,21.30
2013,06,30,08,33,21.30
2013,06,30,08,34,21.40
2013,06,30,08,35,21.50
2013,06,30,08,36,21.50
2013,06,30,08,37,21.60
2013,06,30,08,38,21.70
2013,06,30,08,39,21.70
2013,06,30,08,40,21.80
2013,06,30,08,41,21.80
2013,06,30,08,42,21.90
2013,06,30,08,43,21.90
2013,06,30,08,44,22.00
2013,06,30,08,45,22.10
2013,06,30,08,46,22.10
2013,06,30,08,47,22.20
2013,06,30,08,48,22.30
2013,06,30,08,49,22.40
2013,06,30,08,50,22.40
2013,06,30,08,51,22.50
2013,06,30,08,52,22.60
2013,06,30,08,53,22.60
2013,06,30,08,54,22.60
2013,06,30,08,55,22.70
2013,06,30,08,56,22.80
2013,06,30,08,57,22.80
2013,06,30,08,58,22.90
2013,06,30,08,59,22.90
2013,06,30,09,00,23.00
2013,06,30,09,01,23.00
2013,06,30,09,02,23.10
2013,06,30,09,03,23.10
2013,06,30,09,04,23.20
2013,06,30,09,05,23.20
2013,06,30,09,06,23.30
2013,06,30,09,07,23.30
2013,06,30,09,08,23.40
2013,06,30,09,09,23.40
2013,06,30,09,10,23.40
2013,06,30,09,11,23.50
2013,06,30,09,12,23.50
2013,06,30,09,13,23.50
2013,06,30,09,14,23.60
2013,06,30,09,15,23.60
2013,06,30,09,16,23.60
2013,06,30,09,17,23.70
2013,06,30,09,18,23.70
2013,06,30,09,19,23.80
2013,06,30,09,20,23.80
2013,06,30,09,21,23.90
2013,06,30,09,22,23.90
2013,06,30,09,23,24.00
2013,06,30,09,24,24.00
2013,06,30,09,25,24.10
2013,06,30,09,26,24.10
2013,06,30,09,27,24.10
2013,06,30,09,28,24.20
2013,06,30,09,29,24.20
2013,06,30,09,30,24.20
2013,06,30,09,31,24.30
2013,06,30,09,32,24.30
2013,06,30,09,33,24.30
2013,06,30,09,34,24.40
2013,06,30,09,35,24.40
2013,06,30,09,36,24.40
2013,06,30,09,37,24.40
2013,06,30,09,38,24.40
2013,06,30,09,39,24.50
2013,06,30,09,40,24.60
2013,06,30,09,41,24.60
2013,06,30,09,42,24.60
2013,06,30,09,43,24.60
2013,06,30,09,44,24.50
2013,06,30,09,45,24.40
2013,06,30,09,46,24.30
2013,06,30,09,47,24.30
2013,06,30,09,48,24.30
2013,06,30,09,49,24.20
2013,06,30,09,50,24.10
2013,06,30,09,51,24.10
2013,06,30,09,52,24.00
2013,06,30,09,53,24.00
2013,06,30,09,54,23.90
2013,06,30,09,55,23.90
2013,06,30,09,56,23.80
2013,06,30,09,57,23.80
2013,06,30,09,58,23.70
2013,06,30,09,59,23.60
2013,06,30,10,00,23.50
2013,06,30,10,01,23.40
2013,06,30,10,02,23.30
2013,06,30,10,03,23.20
2013,06,30,10,04,23.10
2013,06,30,10,05,23.10
2013,06,30,10,06,23.10
2013,06,30,10,07,23.10
2013,06,30,10,08,23.10
2013,06,30,10,09,23.20
2013,06,30,10,10,23.20
2013,06,30,10,11,23.20
2013,06,30,10,12,23.30
2013,06,30,10,13,23.30
2013,06,30,10,14,23.30
2013,06,30,10,15,23.30
2013,06,30,10,16,23.30
2013,06,30,10,17,23.30
2013,06,30,10,18,23.30
2013,06,30,10,19,23.30
2013,06,30,10,20,23.30
2013,06,30,10,21,23.30
2013,06,30,10,22,23.30
2013,06,30,10,23,23.30
2013,06,30,10,24,23.30
2013,06,30,10,25,23.40
2013,06,30,10,26,23.40
2013,06,30,10,27,23.40
2013,06,30,10,28,23.40
2013,06,30,10,29,23.50
2013,06,30,10,30,23.50
2013,06,30,10,31,23.40
2013,06,30,10,32,23.40
2013,06,30,10,33,23.40
2013,06,30,10,34,23.40
2013,06,30,10,35,23.40
2013,06,30,10,36,23.30
2013,06,30,10,37,23.20
2013,06,30,10,38,23.20
2013,06,30,10,39,23.20
2013,06,30,10,40,23.20
2013,06,30,10,41,23.20
2013,06,30,10,42,23.30
2013,06,30,10,43,23.30
2013,06,30,10,44,23.30
2013,06,30,10,45,23.40
2013,06,30,10,46,23.40
2013,06,30,10,47,23.50
2013,06,30,10,48,23.50
2013,06,30,10,49,23.60
2013,06,30,10,50,23.70
2013,06,30,10,51,23.80
2013,06,30,10,52,23.90
2013,06,30,10,53,24.00
2013,06,30,10,54,24.10
2013,06,30,10,55,24.20
2013,06,30,10,56,24.20
2013,06,30,10,57,24.30
2013,06,30,10,58,24.30
2013,06,30,10,59,24.30
2013,06,30,11,00,24.20
2013,06,30,11,01,24.10
2013,06,30,11,02,24.10
2013,06,30,11,03,24.10
2013,06,30,11,04,24.10
2013,06,30,11,05,24.20
2013,06,30,11,06,24.20
2013,06,30,11,07,24.30
2013,06,30,11,08,24.30
2013,06,30,11,09,24.40
2013,06,30,11,10,24.50
2013,06,30,11,11,24.60
2013,06,30,11,12,24.60
2013,06,30,11,13,24.60
2013,06,30,11,14,24.70
2013,06,30,11,15,24.70
2013,06,30,11,16,24.70
2013,06,30,11,17,24.70
2013,06,30,11,18,24.70
2013,06,30,11,19,24.70
2013,06,30,11,20,24.80
2013,06,30,11,21,24.80
2013,06,30,11,22,24.80
2013,06,30,11,23,24.80
2013,06,30,11,24,24.80
2013,06,30,11,25,24.70
2013,06,30,11,26,24.70
2013,06,30,11,27,24.60
2013,06,30,11,28,24.70
2013,06,30,11,29,24.70
2013,06,30,11,30,24.70
2013,06,30,11,31,24.80
2013,06,30,11,32,24.80
2013,06,30,11,33,24.80
2013,06,30,11,34,24.90
2013,06,30,11,35,24.90
2013,06,30,11,36,24.90
2013,06,30,11,37,24.90
2013,06,30,11,38,24.90
2013,06,30,11,39,24.90
2013,06,30,11,40,24.90
2013,06,30,11,41,24.90
2013,06,30,11,42,24.90
2013,06,30,11,43,24.90
2013,06,30,11,44,25.00
2013,06,30,11,45,25.10
2013,06,30,11,46,25.10
2013,06,30,11,47,25.20
2013,06,30,11,48,25.20
2013,06,30,11,49,25.20
2013,06,30,11,50,25.20
2013,06,30,11,51,25.20
2013,06,30,11,52,25.20
2013,06,30,11,53,25.30
2013,06,30,11,54,25.30
2013,06,30,11,55,25.40
2013,06,30,11,56,25.40
2013,06,30,11,57,25.50
2013,06,30,11,58,25.50
2013,06,30,11,59,25.60
2013,06,30,12,00,25.60
2013,06,30,12,01,25.60
2013,06,30,12,02,25.70
2013,06,30,12,03,25.70
2013,06,30,12,04,25.80
2013,06,30,12,05,25.80
2013,06,30,12,06,25.90
2013,06,30,12,07,25.90
2013,06,30,12,08,25.90
2013,06,30,12,09,25.90
2013,06,30,12,10,25.90
2013,06,30,12,11,25.90
2013,06,30,12,12,25.90
2013,06,30,12,13,25.90
2013,06,30,12,14,25.90
2013,06,30,12,15,25.90
2013,06,30,12,16,25.90
2013,06,30,12,17,25.90
2013,06,30,12,18,25.80
2013,06,30,12,19,25.80
2013,06,30,12,20,25.80
2013,06,30,12,21,25.80
2013,06,30,12,22,25.80
2013,06,30,12,23,25.80
2013,06,30,12,24,25.70
2013,06,30,12,25,25.70
2013,06,30,12,26,25.70
2013,06,30,12,27,25.70
2013,06,30,12,28,25.70
2013,06,30,12,29,25.60
2013,06,30,12,30,25.60
2013,06,30,12,31,25.60
2013,06,30,12,32,25.60
2013,06,30,12,33,25.70
2013,06,30,12,34,25.70
2013,06,30,12,35,25.80
2013,06,30,12,36,25.90
2013,06,30,12,37,26.00
2013,06,30,12,38,26.10
2013,06,30,12,39,26.10
2013,06,30,12,40,26.10
2013,06,30,12,41,26.10
2013,06,30,12,42,26.10
2013,06,30,12,43,26.10
2013,06,30,12,44,26.20
2013,06,30,12,45,26.30
2013,06,30,12,46,26.40
2013,06,30,12,47,26.50
2013,06,30,12,48,26.60
2013,06,30,12,49,26.70
2013,06,30,12,50,26.70
2013,06,30,12,51,26.70
2013,06,30,12,52,26.70
2013,06,30,12,53,26.80
2013,06,30,12,54,26.80
2013,06,30,12,55,26.90
2013,06,30,12,56,26.90
2013,06,30,12,57,27.00
2013,06,30,12,58,27.00
2013,06,30,12,59,27.10
2013,06,30,13,00,27.20
2013,06,30,13,01,27.20
2013,06,30,13,02,27.20
2013,06,30,13,03,27.00
2013,06,30,13,04,26.90
2013,06,30,13,05,26.90
2013,06,30,13,06,26.90
2013,06,30,13,07,27.00
2013,06,30,13,08,27.10
2013,06,30,13,09,27.20
2013,06,30,13,10,27.30
2013,06,30,13,11,27.40
2013,06,30,13,12,27.50
2013,06,30,13,13,27.60
2013,06,30,13,14,27.70
2013,06,30,13,15,27.80
2013,06,30,13,16,27.80
2013,06,30,13,17,27.80
2013,06,30,13,18,27.80
2013,06,30,13,19,27.80
2013,06,30,13,20,27.80
2013,06,30,13,21,27.80
2013,06,30,13,22,27.80
2013,06,30,13,23,27.80
2013,06,30,13,24,27.90
2013,06,30,13,25,27.90
2013,06,30,13,26,27.90
2013,06,30,13,27,27.90
2013,06,30,13,28,27.80
2013,06,30,13,29,27.40
2013,06,30,13,30,27.10
2013,06,30,13,31,27.00
2013,06,30,13,32,26.90
2013,06,30,13,33,26.80
2013,06,30,13,34,26.80
2013,06,30,13,35,26.70
2013,06,30,13,36,26.50
2013,06,30,13,37,26.40
2013,06,30,13,38,26.20
2013,06,30,13,39,26.10
2013,06,30,13,40,26.00
2013,06,30,13,41,25.90
2013,06,30,13,42,25.90
2013,06,30,13,43,25.80
2013,06,30,13,44,25.80
2013,06,30,13,45,25.70
2013,06,30,13,46,25.70
2013,06,30,13,47,25.70
2013,06,30,13,48,25.70
2013,06,30,13,49,25.50
2013,06,30,13,50,25.40
2013,06,30,13,51,25.40
2013,06,30,13,52,25.40
2013,06,30,13,53,25.40
2013,06,30,13,54,25.40
2013,06,30,13,55,25.50
2013,06,30,13,56,25.50
2013,06,30,13,57,25.60
2013,06,30,13,58,25.70
2013,06,30,13,59,25.70
2013,06,30,14,00,25.60
2013,06,30,14,01,25.60
2013,06,30,14,02,25.50
2013,06,30,14,03,25.40
2013,06,30,14,04,25.30
2013,06,30,14,05,25.20
2013,06,30,14,06,25.00
2013,06,30,14,07,25.10
2013,06,30,14,08,25.20
2013,06,30,14,09,25.30
2013,06,30,14,10,25.40
2013,06,30,14,11,25.60
2013,06,30,14,12,25.80
2013,06,30,14,13,25.90
2013,06,30,14,14,26.00
2013,06,30,14,15,26.20
2013,06,30,14,16,26.30
2013,06,30,14,17,26.40
2013,06,30,14,18,26.50
2013,06,30,14,19,26.60
2013,06,30,14,20,26.70
2013,06,30,14,21,26.80
2013,06,30,14,22,26.80
2013,06,30,14,23,26.90
2013,06,30,14,24,26.90
2013,06,30,14,25,26.90
2013,06,30,14,26,26.90
2013,06,30,14,27,27.00
2013,06,30,14,28,26.90
2013,06,30,14,29,26.90
2013,06,30,14,30,26.90
2013,06,30,14,31,26.80
2013,06,30,14,32,26.80
2013,06,30,14,33,26.80
2013,06,30,14,34,26.80
2013,06,30,14,35,26.80
2013,06,30,14,36,26.80
2013,06,30,14,37,26.80
2013,06,30,14,38,26.80
2013,06,30,14,39,26.90
2013,06,30,14,40,26.90
2013,06,30,14,41,26.90
2013,06,30,14,42,26.90
2013,06,30,14,43,27.00
2013,06,30,14,44,26.90
2013,06,30,14,45,26.90
2013,06,30,14,46,26.90
2013,06,30,14,47,27.00
2013,06,30,14,48,27.10
2013,06,30,14,49,27.10
2013,06,30,14,50,27.20
2013,06,30,14,51,27.30
2013,06,30,14,52,27.30
2013,06,30,14,53,27.40
2013,06,30,14,54,27.50
2013,06,30,14,55,27.60
2013,06,30,14,56,27.60
2013,06,30,14,57,27.60
2013,06,30,14,58,27.60
2013,06,30,14,59,27.50
2013,06,30,15,00,27.30
2013,06,30,15,01,27.20
2013,06,30,15,02,27.10
2013,06,30,15,03,27.00
2013,06,30,15,04,26.90
2013,06,30,15,05,26.90
2013,06,30,15,06,26.90
2013,06,30,15,07,26.90
2013,06,30,15,08,26.90
2013,06,30,15,09,27.00
2013,06,30,15,10,27.10
2013,06,30,15,11,27.10
2013,06,30,15,12,27.20
2013,06,30,15,13,27.20
2013,06,30,15,14,27.30
2013,06,30,15,15,27.40
2013,06,30,15,16,27.50
2013,06,30,15,17,27.60
2013,06,30,15,18,27.80
2013,06,30,15,19,27.90
2013,06,30,15,20,28.00
2013,06,30,15,21,28.10
2013,06,30,15,22,28.20
2013,06,30,15,23,28.20
2013,06,30,15,24,28.30
2013,06,30,15,25,28.40
2013,06,30,15,26,28.40
2013,06,30,15,27,28.40
2013,06,30,15,28,28.50
2013,06,30,15,29,28.50
2013,06,30,15,30,28.50
2013,06,30,15,31,28.50
2013,06,30,15,32,28.50
2013,06,30,15,33,28.60
2013,06,30,15,34,28.70
2013,06,30,15,35,28.70
2013,06,30,15,36,28.70
2013,06,30,15,37,28.70
2013,06,30,15,38,28.70
2013,06,30,15,39,28.70
2013,06,30,15,40,28.70
2013,06,30,15,41,28.70
2013,06,30,15,42,28.60
2013,06,30,15,43,28.60
2013,06,30,15,44,28.50
2013,06,30,15,45,28.40
2013,06,30,15,46,28.30
2013,06,30,15,47,28.30
2013,06,30,15,48,28.20
2013,06,30,15,49,28.20
2013,06,30,15,50,28.20
2013,06,30,15,51,28.20
2013,06,30,15,52,28.30
2013,06,30,15,53,28.40
2013,06,30,15,54,28.40
2013,06,30,15,55,28.50
2013,06,30,15,56,28.70
2013,06,30,15,57,28.70
2013,06,30,15,58,28.70
2013,06,30,15,59,28.70
2013,06,30,16,00,28.70
2013,06,30,16,01,28.60
2013,06,30,16,02,28.60
2013,06,30,16,03,28.50
2013,06,30,16,04,28.60
2013,06,30,16,05,28.70
2013,06,30,16,06,28.70
2013,06,30,16,07,28.70
2013,06,30,16,08,28.80
2013,06,30,16,09,28.90
2013,06,30,16,10,29.00
2013,06,30,16,11,29.10
2013,06,30,16,12,29.10
2013,06,30,16,13,29.10
2013,06,30,16,14,29.10
2013,06,30,16,15,29.20
2013,06,30,16,16,29.20
2013,06,30,16,17,29.20
2013,06,30,16,18,29.20
2013,06,30,16,19,29.20
2013,06,30,16,20,29.30
2013,06,30,16,21,29.30
2013,06,30,16,22,29.30
2013,06,30,16,23,29.30
2013,06,30,16,24,29.30
2013,06,30,16,25,29.30
2013,06,30,16,26,29.30
2013,06,30,16,27,29.40
2013,06,30,16,28,29.40
2013,06,30,16,29,29.40
2013,06,30,16,30,29.30
2013,06,30,16,31,29.20
2013,06,30,16,32,29.10
2013,06,30,16,33,29.10
2013,06,30,16,34,29.10
2013,06,30,16,35,29.10
2013,06,30,16,36,29.20
2013,06,30,16,37,29.20
2013,06,30,16,38,29.10
2013,06,30,16,39,29.00
2013,06,30,16,40,28.90
2013,06,30,16,41,28.90
2013,06,30,16,42,28.90
2013,06,30,16,43,29.00
2013,06,30,16,44,29.10
2013,06,30,16,45,29.10
2013,06,30,16,46,29.10
2013,06,30,16,47,29.10
2013,06,30,16,48,29.10
2013,06,30,16,49,29.10
2013,06,30,16,50,29.10
2013,06,30,16,51,29.20
2013,06,30,16,52,29.30
2013,06,30,16,53,29.30
2013,06,30,16,54,29.30
2013,06,30,16,55,29.30
2013,06,30,16,56,29.40
2013,06,30,16,57,29.40
2013,06,30,16,58,29.40
2013,06,30,16,59,29.30
2013,06,30,17,00,29.40
2013,06,30,17,01,29.40
2013,06,30,17,02,29.40
2013,06,30,17,03,29.40
2013,06,30,17,04,29.40
2013,06,30,17,05,29.40
2013,06,30,17,06,29.50
2013,06,30,17,07,29.60
2013,06,30,17,08,29.70
2013,06,30,17,09,29.70
2013,06,30,17,10,29.60
2013,06,30,17,11,29.50
2013,06,30,17,12,29.50
2013,06,30,17,13,29.40
2013,06,30,17,14,29.30
2013,06,30,17,15,29.20
2013,06,30,17,16,29.20
2013,06,30,17,17,29.10
2013,06,30,17,18,29.10
2013,06,30,17,19,29.20